FW5215 Weather Reports


time (UTC)temp
C
wind
direction
speed
KPH
gust
KPH
rain 1hr
cm
rain 24hr
cm
rain mn
cm
humidity
%
barometer
mb
20260504024511 12 258 0.0 3.2 0.00 0.00 0.00 64 999.3
20260504023013 12 255 0.0 1.6 0.00 0.00 0.00 58 999.4
20260504021510 13 255 0.0 1.6 0.00 0.00 0.00 58 999.7
20260504020015 13 255 0.0 1.6 0.00 0.00 0.00 54 999.6
20260504014507 15 255 0.0 1.6 0.00 0.00 0.00 48 999.6
20260504013008 15 255 0.0 1.6 0.00 0.00 0.00 43 999.7
20260504011504 16 255 0.0 1.6 0.00 0.00 0.00 41 999.8
20260504010104 17 255 0.0 3.2 0.00 0.00 0.00 45 999.8
20260504004520 18 255 1.6 4.8 0.00 0.00 0.00 41 999.8
20260504003011 18 245 1.6 4.8 0.00 0.00 0.00 36 1000.0
20260504001510 18 264 1.6 6.4 0.00 0.00 0.00 36 1000.2
20260504000007 18 247 3.2 11.3 0.00 0.00 0.00 33 1000.5
20260503234506 18 292 4.8 14.5 0.00 0.00 0.00 35 1000.6
20260503233104 19 281 4.8 17.7 0.00 0.00 0.00 34 1000.6
20260503231512 20 292 4.8 12.9 0.00 0.00 0.00 33 1000.6
20260503230013 20 266 4.8 12.9 0.00 0.00 0.00 30 1000.7
20260503224511 20 288 9.7 17.7 0.00 0.00 0.00 28 1000.7
20260503223004 20 288 6.4 17.7 0.00 0.00 0.00 32 1000.6
20260503221504 21 294 4.8 14.5 0.00 0.00 0.00 28 1000.7
20260503220029 21 282 9.7 19.3 0.00 0.00 0.00 27 1000.8
20260503214510 20 314 4.8 16.1 0.00 0.00 0.00 28 1000.9
20260503213011 20 291 3.2 14.5 0.00 0.00 0.00 27 1000.8
20260503211506 20 291 3.2 19.3 0.00 0.00 0.00 27 1000.9
20260503210006 21 309 3.2 16.1 0.00 0.00 0.00 24 1001.1
20260503204603 21 318 4.8 17.7 0.00 0.00 0.00 26 1001.4
20260503203020 20 255 4.8 11.3 0.00 0.00 0.00 24 1001.6
20260503201510 19 278 8.0 17.7 0.00 0.00 0.00 27 1001.9
20260503200006 20 267 8.0 20.9 0.00 0.00 0.00 27 1001.9
20260503194506 20 288 6.4 17.7 0.00 0.00 0.00 27 1002.0
20260503193112 20 20 1.6 14.5 0.00 0.00 0.00 26 1002.0
20260503191519 21 288 6.4 14.5 0.00 0.00 0.00 26 1002.1
20260503190015 20 336 3.2 20.9 0.00 0.00 0.00 23 1002.1
20260503184511 20 303 4.8 14.5 0.00 0.00 0.00 32 1002.3
20260503183009 20 355 6.4 20.9 0.00 0.00 0.00 31 1002.4
20260503181505 20 324 4.8 20.9 0.00 0.00 0.00 28 1002.4
20260503180015 19 321 8.0 20.9 0.00 0.00 0.00 34 1002.6
20260503174504 20 339 8.0 20.9 0.00 0.00 0.00 33 1002.6
20260503173003 19 310 6.4 12.9 0.00 0.00 0.00 40 1002.6
20260503171513 19 311 6.4 14.5 0.00 0.00 0.00 40 1002.8
20260503150104 17 49 3.2 9.7 0.00 0.00 0.00 47 1002.8
20260503100105 10 261 0.0 1.6 0.00 0.00 0.00 74 1002.5
20260503090108 11 196 1.6 8.0 0.00 0.00 0.00 69 1002.8
20260503081510 12 173 3.2 9.7 0.00 0.00 0.00 61 1003.4
20260503071511 11 126 3.2 6.4 0.00 0.00 0.00 66 1004.1
20260503054512 12 113 0.0 3.2 0.00 0.00 0.00 63 1005.4
20260503051512 13 113 0.0 1.6 0.00 0.00 0.00 63 1005.6
20260503050024 13 113 1.6 3.2 0.00 0.00 0.00 56 1005.7
20260503044506 13 149 0.0 4.8 0.00 0.00 0.00 56 1005.6
20260503043115 14 147 0.0 3.2 0.00 0.00 0.00 55 1006.1
20260503041511 15 173 0.0 1.6 0.00 0.00 0.00 53 1006.2
20260503040009 15 238 0.0 9.7 0.00 0.00 0.00 54 1006.4
20260503034509 15 275 3.2 6.4 0.00 0.00 0.00 50 1006.6
20260503033005 15 263 3.2 12.9 0.00 0.00 0.00 49 1006.8
20260503031505 15 263 1.6 3.2 0.00 0.00 0.00 53 1006.9
20260503030115 15 242 0.0 4.8 0.00 0.00 0.00 50 1006.8